Simultaneous Nadir Overpasses (SNOs) Predictions

Prediction of SNOs between NOAA-19 and TERRA Satellite Orbit:

Table of predicted SNOs for the next 14.0 days since TLE Epoch: 3/31/2014
Index Date (NOAA-19) Time (NOAA-19) Lat,Lon (NOAA-19) SZA (NOAA-19 ) Date (TERRA) Time (TERRA) Lat,Lon (TERRA) SZA (TERRA ) Distance(km) Time Diff (sec)
1 03/31/2014 14:16:05 70.29, -32.90 65.91 03/31/2014 14:16:18 70.31, -32.90 65.94 2.89 13
2 03/31/2014 15:07:04 -69.92, 134.90 114.47 03/31/2014 15:05:52 -69.98, 134.25 114.42 25.59 72
3 04/02/2014 19:00:03 70.34,-103.95 65.12 04/02/2014 19:00:36 70.35,-103.92 65.13 1.38 33
4 04/02/2014 19:51:06 -70.18, 63.53 115.05 04/02/2014 19:50:07 -70.18, 63.47 115.06 2.24 59
5 04/04/2014 23:44:00 70.35,-174.93 64.29 04/04/2014 23:44:54 70.36,-174.99 64.30 2.03 54
6 04/05/2014 00:35:04 -70.25, -7.55 115.82 04/05/2014 00:34:24 -70.25, -7.51 115.83 1.55 40
7 04/07/2014 04:27:59 70.48, 113.89 63.59 04/07/2014 04:29:10 70.44, 114.07 63.55 7.98 71
8 04/07/2014 05:19:01 -70.29, -78.57 116.62 04/07/2014 05:18:41 -70.28, -78.53 116.63 1.39 20
9 04/09/2014 09:12:09 71.19, 41.72 63.49 04/09/2014 09:13:16 71.05, 43.92 63.35 81.05 67
10 04/09/2014 10:02:57 -70.29,-149.52 117.44 04/09/2014 10:02:58 -70.29,-149.60 117.44 2.76 1
11 04/09/2014 10:53:43 69.65, 18.73 61.92 04/09/2014 10:52:33 69.74, 17.27 61.99 57.17 70
12 04/11/2014 14:46:54 -70.35, 139.41 118.19 04/11/2014 14:47:13 -70.37, 139.46 118.17 2.81 19
13 04/11/2014 15:37:50 70.22, -53.12 61.68 04/11/2014 15:36:41 70.21, -53.14 61.66 2.06 69
14 04/13/2014 19:30:50 -70.38, 68.41 118.96 04/13/2014 19:31:29 -70.37, 68.40 118.97 1.10 39
15 04/13/2014 20:21:46 70.24,-124.10 60.89 04/13/2014 20:20:56 70.26,-124.12 60.91 2.57 50




NCC Satellite Simultaneous Nadir Overpasses (SNOs) Prediction Service
